[[{"header":{"parameterUnit":"m.s-1","parameterCategory":1,"la1":30.2991,"la2":30.254,"lo1":-89.0895,"lo2":-89.0444,"dy":0.0017,"dx":0.0017,"nx":28,"ny":28,"refTime":"2025-07-29T09:00:00:Z","depth":0,"parameterNumber":2,"parameterNumberName":"U-component_of_WINDS"},"data":[0,0,0,0,0,0,0,0,0,0,0,0,0,0,0,0,0,0,0,0,0,0,0,0,0,0,0,0,0,0,0,0,0,0,0,0,0,0,0,0,0,0,0,0,0,0,0,0,0,0,0,0,0,0,0,0,0,0,2.2879,2.288,0,2.2886,2.2886,2.2886,2.2854,2.2853,2.2852,2.2851,2.2856,2.2857,2.2858,0,0,0,0,0,0,0,0,0,0,0,0,0,2.2839,2.284,2.2879,2.288,2.288,2.2886,2.2886,2.2886,2.2854,2.2853,2.2852,2.2851,2.2856,2.2857,2.2859,0,0,0,0,0,0,0,0,0,0,0,0,0,2.2852,2.284,2.2879,2.2864,2.2863,2.2886,2.2886,2.2886,2.2854,2.2853,2.2851,2.285,2.2856,2.2857,2.2859,2.2896,0,0,2.2863,2.2864,0,0,0,0,0,0,0,0,2.2851,2.2854,2.2866,2.2865,2.2864,2.2868,2.2874,2.289,2.2855,2.2857,2.2851,2.2849,2.2861,2.2862,2.2867,2.2897,2.2897,2.2863,2.2864,2.2865,2.2866,0,0,0,0,0,0,0,2.285,2.2853,2.2882,2.2867,2.2865,2.2857,2.2858,2.2877,2.2867,2.2857,2.2855,2.2856,2.286,2.2865,2.2866,2.2897,2.2863,2.2865,2.2866,2.2866,2.2961,2.2963,0,0,0,0,0,0,2.2852,2.2853,2.2882,2.2882,2.2854,2.2859,2.2859,2.2868,2.2867,2.2865,2.2857,2.2855,2.2863,2.2865,2.2866,2.2913,2.2865,2.2867,2.2867,2.296,2.2961,2.2963,0,0,0,0,0,0,2.2851,2.2855,2.2882,2.2867,2.287,2.2861,2.2871,2.2869,2.2874,2.2867,2.2865,2.2864,2.2862,2.2864,2.289,2.2912,2.2867,2.2869,2.2958,2.296,2.2962,2.3004,0,0,0,0,0,0,2.285,2.2854,2.2868,2.2867,2.2871,2.2905,2.2872,2.287,2.2877,2.2873,2.2873,2.2871,2.2861,2.2888,2.2891,2.2914,2.287,2.2956,2.2959,2.2962,2.3001,2.3008,2.3013,0,0,0,0,0,2.2849,2.2879,2.2869,2.2873,2.2888,2.2906,2.2908,2.2896,2.2878,2.2893,2.2889,2.2871,2.2909,2.2891,2.2895,2.2917,2.2954,2.2958,2.2961,2.2998,2.3006,2.3013,0,0,0,0,0,0,2.2882,2.2878,2.2868,2.2899,2.2903,2.2901,2.2918,2.2905,2.2914,2.291,2.2895,2.2895,2.2924,2.2923,2.2902,2.2955,2.2929,2.2933,2.2955,2.2963,2.2969,2.2969,2.2871,0,0,0,0,0,2.2893,2.2908,2.2904,2.2932,2.2935,2.2927,2.2934,2.2925,2.2928,2.293,2.2928,2.2932,2.2945,2.2953,2.2965,2.3,2.3001,2.3018,2.3024,2.303,2.3034,2.3055,2.3063,2.2975,2.2975,2.2975,0,0,2.2915,2.2916,2.2926,2.2939,2.2941,2.2958,2.2928,2.2946,2.2959,2.2932,2.2957,2.2956,2.296,2.2991,2.3005,2.2991,2.3059,2.3034,2.3039,2.304,2.306,2.3068,2.3076,2.2977,2.2977,2.2977,0,0,2.2966,2.2967,2.2991,2.2995,2.2999,2.2994,2.3,2.3,2.2999,2.3024,2.3005,2.3019,2.3041,2.3046,2.3051,2.3106,2.3091,2.311,2.3144,2.3164,2.3171,2.3177,2.3199,2.3207,2.3114,2.3114,2.3114,0,2.2993,2.3018,2.3005,2.3026,2.3033,2.3011,2.3037,2.304,2.3048,2.3054,2.3038,2.3068,2.3068,2.3102,2.3115,2.3119,2.3127,2.311,2.3171,2.3177,2.3183,2.3203,2.3211,2.3116,2.3116,2.3116,2.3116,0,2.3053,2.3071,2.309,2.31,2.3109,2.3131,2.3123,2.3133,2.3124,2.312,2.3147,2.3148,2.316,2.3167,2.3157,2.32,2.3191,2.3174,2.3147,2.3194,2.3213,2.3221,2.312,2.3119,2.3118,2.3118,0,0,2.3123,2.3128,2.3135,2.3141,2.3145,2.3159,2.3181,2.3194,2.3205,2.3211,2.3231,2.3251,2.3236,2.3242,2.3232,2.325,2.3297,2.3231,2.3231,2.3245,2.3346,2.3361,2.337,2.3286,2.3288,2.3289,2.3347,0,2.3175,2.3214,2.3204,2.3244,2.3261,2.3241,2.3261,2.3266,2.3264,2.3279,2.3275,2.3291,2.3269,2.3273,2.329,2.3287,2.3317,2.3283,2.3305,2.3306,2.3307,2.3379,2.3394,2.3448,2.3354,2.3355,2.3356,0,2.3239,2.325,2.3292,2.3296,2.3303,2.3321,2.3334,2.3347,2.3353,2.3351,2.3359,2.3346,2.3369,2.3342,2.3374,2.3352,2.336,2.3361,2.3362,2.3365,2.3335,2.3386,2.3465,2.3474,2.3367,2.3366,2.3365,0,2.329,2.3314,2.3343,2.3348,2.3353,2.3367,2.3369,2.3374,2.3383,2.3394,2.34,2.3413,2.3421,2.3431,2.3423,2.3404,2.3458,2.3429,2.3457,2.3458,2.347,2.347,2.3554,2.3473,2.3473,2.3473,2.3473,0,2.3348,2.3375,2.3366,2.3384,2.3414,2.3403,2.3433,2.3433,2.3438,2.3456,2.3439,2.3456,2.3443,2.346,2.3453,2.3483,2.3486,2.3485,2.3483,2.3487,2.3488,2.3494,2.349,2.3475,2.3475,2.3474,2.3474,0,2.341,2.3405,2.3435,2.3438,2.344,2.3462,2.3464,2.3481,2.3478,2.3502,2.3506,2.3502,2.3521,2.3513,2.3532,2.3528,2.3567,2.3559,2.3565,2.3564,2.3593,2.3591,2.3685,2.3698,2.3607,2.3608,2.3609,0,2.3448,2.3469,2.3475,2.3486,2.3491,2.3509,2.3519,2.3509,2.3521,2.3531,2.3547,2.3564,2.3578,2.3609,2.3607,2.3623,2.3616,2.3648,2.3618,2.3623,2.3619,2.3619,2.3622,2.3654,2.3656,2.3656,2.3657,0,2.3519,2.3516,2.3531,2.3547,2.356,2.3571,2.3581,2.3591,2.3582,2.3596,2.3616,2.3627,2.3648,2.3666,2.368,2.3683,2.3669,2.3667,2.3674,2.3679,2.3683,2.3684,2.3583,2.3665,2.3664,2.3663,2.3663,2.3663,2.3571,2.3589,2.3597,2.3616,2.3623,2.3633,2.365,2.365,2.3667,2.3684,2.3677,2.37,2.3708,2.3726,2.3731,2.3749,2.3736,2.3747,2.375,2.3753,2.3758,2.3679,2.3751,2.3751,2.3751,2.375,2.375,0,2.3642,2.3647,2.3664,2.368,2.3695,2.3681,2.3692,2.3706,2.3727,2.3735,2.375,2.3774,2.3792,2.3792,2.3809,2.3824,2.3819,2.3829,2.3829,2.383,2.3767,2.376,2.3834,2.3834,2.3834,2.3834,2.3834,2.3834,2.3681,2.3712,2.3711,2.3746,2.375,2.3774,2.3781,2.3791,2.3798,2.3826,2.3841,2.3842,2.3848,2.3866,2.3882,2.3882,2.389,2.3903,2.3901,2.3842,2.3834,2.3826,2.3819,2.3904,2.3905,2.3962,2.3963,2.3963]},{"header":{"parameterUnit":"m.s-1","parameterCategory":1,"la1":30.2991,"la2":30.254,"lo1":-89.0895,"lo2":-89.0444,"dy":0.0017,"dx":0.0017,"nx":28,"ny":28,"refTime":"2025-07-29T09:00:00:Z","depth":0,"parameterNumber":3,"parameterNumberName":"V-component_of_WINDS"},"data":[0,0,0,0,0,0,0,0,0,0,0,0,0,0,0,0,0,0,0,0,0,0,0,0,0,0,0,0,0,0,0,0,0,0,0,0,0,0,0,0,0,0,0,0,0,0,0,0,0,0,0,0,0,0,0,0,0,0,-3.1836,-3.1836,0,-3.186,-3.186,-3.1861,-3.1879,-3.1879,-3.1879,-3.1879,-3.19,-3.19,-3.1901,0,0,0,0,0,0,0,0,0,0,0,0,0,-3.1805,-3.1805,-3.1836,-3.1836,-3.1837,-3.186,-3.186,-3.1861,-3.1879,-3.1879,-3.1879,-3.1879,-3.19,-3.19,-3.1901,0,0,0,0,0,0,0,0,0,0,0,0,0,-3.1822,-3.1805,-3.1836,-3.1849,-3.185,-3.186,-3.1861,-3.1861,-3.1879,-3.1879,-3.1879,-3.1879,-3.19,-3.19,-3.1901,-3.1899,0,0,-3.1902,-3.1903,0,0,0,0,0,0,0,0,-3.1821,-3.1823,-3.1846,-3.1848,-3.1849,-3.1867,-3.1857,-3.1874,-3.1878,-3.1868,-3.1879,-3.1879,-3.1888,-3.189,-3.1894,-3.19,-3.1901,-3.1903,-3.1903,-3.1903,-3.1903,0,0,0,0,0,0,0,-3.182,-3.1822,-3.1846,-3.1847,-3.1849,-3.1853,-3.1855,-3.186,-3.1876,-3.1869,-3.187,-3.1873,-3.1889,-3.1893,-3.1894,-3.1901,-3.1902,-3.1903,-3.1903,-3.1904,-3.1911,-3.1911,0,0,0,0,0,0,-3.1817,-3.1821,-3.1845,-3.1846,-3.1836,-3.1853,-3.1856,-3.1861,-3.1876,-3.1879,-3.1872,-3.1873,-3.1892,-3.1894,-3.1895,-3.1897,-3.1903,-3.1904,-3.1904,-3.1911,-3.1911,-3.1911,0,0,0,0,0,0,-3.1816,-3.1819,-3.1844,-3.1834,-3.1838,-3.1853,-3.1858,-3.1861,-3.1865,-3.1879,-3.1882,-3.1874,-3.1892,-3.1894,-3.1899,-3.1897,-3.1904,-3.1904,-3.1912,-3.1911,-3.1911,-3.1898,0,0,0,0,0,0,-3.1815,-3.1819,-3.1818,-3.1834,-3.1838,-3.1848,-3.1858,-3.1861,-3.1867,-3.1868,-3.1881,-3.1883,-3.1893,-3.1898,-3.19,-3.1898,-3.1905,-3.1912,-3.1911,-3.1911,-3.1899,-3.1897,-3.1896,0,0,0,0,0,-3.1814,-3.1812,-3.1818,-3.1821,-3.1838,-3.1847,-3.185,-3.1862,-3.1866,-3.1866,-3.1876,-3.1883,-3.1898,-3.1898,-3.19,-3.1899,-3.1912,-3.1912,-3.1911,-3.1899,-3.1898,-3.1896,0,0,0,0,0,0,-3.1793,-3.1814,-3.1821,-3.1824,-3.1834,-3.1851,-3.185,-3.1859,-3.1867,-3.1868,-3.1881,-3.1884,-3.1888,-3.1894,-3.1894,-3.19,-3.1906,-3.1906,-3.1896,-3.1895,-3.1893,-3.1892,-3.1905,0,0,0,0,0,-3.1789,-3.1796,-3.1813,-3.1814,-3.1819,-3.1834,-3.1839,-3.1847,-3.1858,-3.1861,-3.1871,-3.188,-3.1887,-3.1891,-3.1898,-3.19,-3.1904,-3.19,-3.1899,-3.1898,-3.1898,-3.1902,-3.1901,-3.191,-3.191,-3.191,0,0,-3.178,-3.1793,-3.1795,-3.1811,-3.1819,-3.1826,-3.1837,-3.1843,-3.1848,-3.1862,-3.1868,-3.1876,-3.1887,-3.1891,-3.1893,-3.1896,-3.1897,-3.1898,-3.1897,-3.1897,-3.1902,-3.1901,-3.19,-3.191,-3.191,-3.191,0,0,-3.1768,-3.1777,-3.1781,-3.179,-3.1805,-3.1815,-3.1816,-3.1832,-3.1838,-3.1845,-3.1857,-3.1863,-3.1873,-3.1882,-3.1888,-3.1883,-3.189,-3.1885,-3.1878,-3.1882,-3.1882,-3.1881,-3.1881,-3.1881,-3.1884,-3.1884,-3.1884,0,-3.1754,-3.1766,-3.1781,-3.1787,-3.1794,-3.181,-3.1814,-3.1822,-3.1836,-3.1841,-3.1845,-3.1862,-3.187,-3.1878,-3.1877,-3.188,-3.1883,-3.1883,-3.1881,-3.188,-3.188,-3.188,-3.188,-3.1884,-3.1884,-3.1884,-3.1884,0,-3.175,-3.1758,-3.1758,-3.1776,-3.1783,-3.1787,-3.1804,-3.1809,-3.1818,-3.1828,-3.1836,-3.1848,-3.1859,-3.1861,-3.1868,-3.1871,-3.1873,-3.1878,-3.1884,-3.1878,-3.1879,-3.1879,-3.1883,-3.1883,-3.1883,-3.1883,0,0,-3.1722,-3.1751,-3.1751,-3.176,-3.1779,-3.1785,-3.1791,-3.1804,-3.1809,-3.182,-3.1826,-3.1837,-3.1844,-3.1851,-3.186,-3.1863,-3.1861,-3.1869,-3.1869,-3.1868,-3.1867,-3.1863,-3.1863,-3.1867,-3.1867,-3.1867,-3.1866,0,-3.1713,-3.1727,-3.1743,-3.1751,-3.1759,-3.1776,-3.1782,-3.1794,-3.1805,-3.1813,-3.1825,-3.1833,-3.184,-3.1845,-3.1849,-3.186,-3.1861,-3.1861,-3.1873,-3.1873,-3.187,-3.1863,-3.1858,-3.1857,-3.1866,-3.1866,-3.1866,0,-3.1704,-3.1717,-3.1727,-3.1748,-3.1752,-3.1757,-3.1772,-3.178,-3.1795,-3.1803,-3.1812,-3.1823,-3.1831,-3.1837,-3.185,-3.1849,-3.1855,-3.1862,-3.1862,-3.1864,-3.187,-3.1865,-3.1856,-3.1857,-3.1867,-3.1867,-3.1867,0,-3.1685,-3.1705,-3.1714,-3.1721,-3.1746,-3.1749,-3.176,-3.1775,-3.1783,-3.1796,-3.1801,-3.1814,-3.1821,-3.1831,-3.1845,-3.1847,-3.1857,-3.1863,-3.1864,-3.1864,-3.1865,-3.1864,-3.1858,-3.1867,-3.1867,-3.1867,-3.1867,0,-3.1674,-3.1679,-3.1706,-3.1712,-3.172,-3.1738,-3.1745,-3.1756,-3.1771,-3.1779,-3.1794,-3.1801,-3.182,-3.183,-3.1841,-3.1851,-3.1853,-3.186,-3.1863,-3.1859,-3.1859,-3.1863,-3.1864,-3.1867,-3.1867,-3.1867,-3.1867,0,-3.1653,-3.1671,-3.1683,-3.1707,-3.1713,-3.1718,-3.1738,-3.1744,-3.1757,-3.1768,-3.1772,-3.1791,-3.1804,-3.182,-3.1837,-3.1845,-3.1854,-3.1858,-3.1849,-3.1851,-3.1852,-3.1852,-3.1849,-3.185,-3.1858,-3.1858,-3.1858,0,-3.1645,-3.165,-3.1676,-3.1684,-3.1694,-3.1706,-3.1715,-3.1734,-3.1743,-3.1763,-3.1767,-3.1782,-3.1795,-3.1815,-3.183,-3.1844,-3.1849,-3.1847,-3.1851,-3.1848,-3.1851,-3.1851,-3.1852,-3.1846,-3.1846,-3.1845,-3.1845,0,-3.1629,-3.1639,-3.1652,-3.167,-3.1681,-3.1695,-3.1709,-3.1715,-3.1737,-3.1746,-3.1761,-3.1771,-3.1791,-3.1806,-3.1822,-3.1833,-3.1843,-3.1844,-3.1846,-3.1842,-3.1837,-3.1841,-3.1848,-3.1844,-3.1844,-3.1844,-3.1844,-3.1844,-3.1615,-3.1622,-3.1642,-3.1657,-3.1671,-3.1686,-3.1694,-3.171,-3.1723,-3.1741,-3.1752,-3.1767,-3.1784,-3.1808,-3.1819,-3.1831,-3.1834,-3.1835,-3.1836,-3.1836,-3.1836,-3.1836,-3.1834,-3.1834,-3.1834,-3.1834,-3.1834,0,-3.1601,-3.1616,-3.163,-3.1652,-3.1665,-3.1676,-3.1693,-3.1703,-3.1716,-3.1733,-3.1746,-3.1765,-3.178,-3.1798,-3.1815,-3.1821,-3.1827,-3.1825,-3.1825,-3.1828,-3.1831,-3.1829,-3.1821,-3.1821,-3.1821,-3.1821,-3.1821,-3.1821,-3.1596,-3.1609,-3.1622,-3.1642,-3.1657,-3.1673,-3.1683,-3.1697,-3.171,-3.1731,-3.1744,-3.1757,-3.1775,-3.1794,-3.1809,-3.1814,-3.182,-3.1817,-3.1823,-3.1826,-3.1827,-3.1828,-3.1826,-3.1818,-3.1818,-3.1819,-3.1819,-3.1819]}]]